RH
12 12 15 14 14 19 21 18 18 17 17 17 14 15 17 17 20 23 18 15 14 13 16 18 25 37 40 36 36 37 39 44 44 41 44 50 54 56 59 62 62 59 56 52 47 43 44 44 42 46 48 46 47 49 49 51 52 53 54 52 52 51 48 49 52 53 54 54 55 55 52 49 47 47 50 52 53 54 54 54 53 52 52 53 55 55
14 12 13 14 13 17 21 21 19 19 19 18 15 14 16 17 21 23 18 16 14 16 23 26 30 41 47 41 37 40 42 40 41 43 47 51 54 57 57 57 57 55 51 48 44 42 42 42 41 42 45 45 46 45 45 48 50 51 50 48 48 49 49 50 54 55 55 55 55 56 54 50 48 46 46 48 49 49 49 49 47 46 47 51 54 54
14 13 12 12 14 17 21 22 21 22 23 21 17 14 15 16 21 21 17 16 14 18 30 33 37 45 48 47 41 39 37 32 33 37 41 44 46 50 51 49 50 50 48 45 42 41 41 42 42 42 42 43 45 44 43 45 47 46 44 42 41 44 46 48 52 54 53 52 50 51 50 47 46 46 45 46 46 44 44 46 47 45 45 47 50 51
15 13 12 12 15 19 23 21 22 25 25 22 16 13 16 16 20 21 18 20 18 22 32 35 42 49 50 52 46 37 31 27 28 30 32 36 39 43 44 44 44 44 43 43 43 43 42 42 43 45 44 43 44 46 45 44 44 42 41 40 40 40 42 44 47 48 47 45 45 44 44 43 44 45 45 44 45 45 46 48 49 49 49 49 50 52
18 13 12 14 15 19 23 21 23 27 25 22 17 14 17 18 21 22 20 21 20 23 30 33 43 49 51 54 50 39 30 25 26 28 30 32 33 36 39 40 41 40 40 43 44 44 43 44 43 44 45 45 46 46 47 45 43 41 40 40 40 40 42 43 44 43 42 42 42 42 42 41 42 43 43 44 47 49 50 51 53 53 54 54 54 55
22 16 13 15 16 17 21 22 24 27 23 21 19 15 17 20 24 25 21 19 20 23 29 31 36 43 47 53 53 48 39 27 25 28 29 31 31 31 34 36 38 38 40 42 44 45 45 45 44 44 45 46 47 47 48 48 45 43 42 41 41 40 41 42 42 41 41 41 42 42 43 43 44 44 46 48 50 52 52 53 54 55 56 57 58 59
23 19 15 17 19 18 21 25 24 24 22 20 20 16 17 21 25 28 24 21 22 24 30 29 27 36 44 48 52 56 50 35 27 28 29 30 31 32 32 34 35 36 39 41 43 45 46 46 46 44 45 47 48 48 48 47 45 44 43 42 41 41 41 42 42 42 41 41 42 42 43 44 45 46 49 51 51 53 54 54 56 55 52 53 58 62
22 20 18 19 23 21 21 23 21 21 21 21 20 17 18 21 25 29 24 22 23 25 30 29 23 34 48 51 51 55 54 45 34 30 31 30 31 33 33 33 34 35 37 40 43 45 46 47 47 46 46 46 47 47 46 45 45 44 43 42 42 42 42 43 43 43 43 43 44 44 45 46 47 48 50 51 50 52 53 54 55 55 51 49 52 59
21 20 20 23 25 23 19 19 19 20 20 21 22 19 18 18 24 30 25 20 23 27 33 32 24 30 48 56 54 52 53 52 45 35 31 32 32 33 34 33 34 34 36 39 43 46 47 47 47 46 45 45 45 46 46 45 43 43 42 42 42 41 42 42 42 43 44 45 45 46 47 47 47 48 49 49 49 50 50 50 51 52 53 53 53 56
19 19 23 27 25 21 18 17 20 20 19 23 25 24 19 17 21 28 26 23 25 30 34 36 31 28 43 57 56 53 53 53 50 41 33 32 33 34 34 33 34 34 35 39 42 45 46 46 46 46 45 45 45 45 45 43 42 41 41 41 42 42 41 41 41 43 45 46 47 48 49 49 47 47 47 47 47 48 47 46 45 46 50 54 56 56
22 25 27 29 23 19 18 18 21 21 18 23 28 27 21 17 18 19 22 24 27 31 30 32 34 31 43 58 56 54 56 53 50 43 35 33 33 35 35 34 33 33 35 39 41 42 43 44 44 45 45 45 44 44 43 42 41 40 40 41 42 42 41 41 41 43 46 48 51 52 52 51 50 49 47 46 46 46 45 44 44 46 49 52 54 53
27 31 29 27 21 20 21 19 21 21 18 23 27 25 21 18 17 16 19 22 24 28 26 28 33 29 37 52 53 54 59 57 53 46 38 34 33 35 35 34 34 34 36 38 40 42 42 43 44 44 45 45 44 44 44 43 43 42 41 41 40 41 41 41 41 42 45 49 51 51 51 51 50 49 49 48 48 46 46 47 47 50 52 54 54 51
29 33 28 26 22 21 22 20 22 22 19 24 25 24 22 20 21 21 21 22 22 24 26 30 33 29 38 53 55 57 61 60 56 49 41 36 34 35 35 35 36 36 38 39 40 42 43 44 46 46 46 45 45 46 45 45 44 42 42 41 41 41 42 42 42 42 43 46 48 49 49 49 48 48 49 49 49 49 49 50 51 53 55 57 55 51
30 35 30 28 24 21 21 21 25 24 20 24 24 22 22 21 25 25 22 22 22 21 26 32 32 36 54 68 65 63 62 58 54 50 44 38 35 36 38 38 39 39 40 41 42 44 44 45 46 46 46 46 46 46 45 44 43 41 41 40 41 42 41 41 42 42 43 44 46 48 47 48 48 47 48 49 50 51 53 53 54 54 54 53 53 51
27 34 32 30 25 22 22 23 27 25 20 23 22 19 21 23 25 26 23 23 23 22 26 29 33 46 62 70 67 63 60 56 56 53 46 43 41 41 43 43 43 43 43 45 45 45 45 45 46 45 46 47 47 46 45 44 43 42 40 39 40 41 40 40 40 42 43 45 46 47 47 48 49 49 51 52 53 53 54 54 54 53 51 49 51 51
26 29 30 30 25 23 24 25 29 27 22 23 20 18 20 22 26 26 25 27 28 27 28 31 45 62 68 66 63 60 58 56 59 56 48 47 47 46 47 47 46 47 47 47 47 46 46 46 46 46 47 48 48 47 46 44 43 42 40 40 40 41 42 42 43 43 45 46 46 47 49 50 50 51 52 52 53 53 52 52 51 50 49 49 51 51
29 31 30 29 26 24 24 25 27 26 22 21 19 19 19 20 28 30 30 32 31 33 35 40 60 75 74 73 69 65 64 59 58 57 51 50 51 49 50 49 48 49 49 49 49 48 48 48 47 47 48 49 49 48 47 44 42 42 41 41 41 42 44 46 47 48 47 48 48 49 49 50 50 50 49 49 49 49 50 50 49 48 48 49 51 52
33 37 35 29 26 25 22 22 25 23 21 20 19 19 19 20 26 31 35 34 30 36 40 45 66 77 72 74 72 66 67 62 56 54 51 52 53 51 52 51 50 51 50 50 50 49 50 49 48 48 48 48 48 48 46 42 41 42 43 42 42 43 45 48 49 50 50 50 50 50 49 49 49 47 47 46 45 46 48 50 50 50 50 50 51 53
34 39 40 32 26 24 21 20 25 24 20 20 20 18 19 22 23 26 34 37 34 39 41 45 65 72 63 66 69 64 64 60 55 53 52 52 53 52 53 53 52 52 51 50 50 50 51 49 49 49 47 47 47 46 44 41 40 41 43 43 43 44 46 47 49 49 50 51 50 51 49 48 46 45 45 46 46 46 47 49 51 51 51 50 50 51
35 39 43 38 28 24 22 20 24 26 22 22 23 19 18 22 23 23 29 34 34 36 38 41 54 61 57 59 63 64 65 61 58 58 55 53 54 54 55 54 54 54 52 51 51 51 51 50 49 48 47 46 45 44 42 41 40 40 43 44 43 45 45 46 47 48 48 49 49 48 47 46 45 44 43 44 45 47 47 47 48 48 49 49 49 50
37 39 45 44 33 26 24 21 23 27 23 24 27 23 20 22 24 25 29 32 32 32 36 37 45 61 68 66 63 65 67 65 62 59 56 55 56 56 56 55 55 54 53 53 52 52 51 50 48 47 45 45 44 43 42 41 41 41 43 44 43 44 44 44 45 46 46 46 46 46 46 46 46 46 44 40 40 43 44 44 44 44 45 46 48 50
37 38 42 44 35 27 24 22 24 27 25 26 28 26 23 23 25 27 30 31 30 32 34 35 49 72 78 74 71 68 66 66 64 59 56 57 58 58 58 57 56 56 54 54 52 52 51 49 48 46 45 45 44 44 43 42 42 44 44 44 43 43 43 43 44 45 45 45 46 46 47 47 47 47 45 40 36 36 39 41 41 41 41 42 45 50
36 37 39 39 34 30 27 24 23 27 30 28 26 25 25 27 26 26 28 28 28 31 29 32 59 81 78 72 73 69 65 65 65 61 60 60 60 60 60 58 57 57 55 54 54 53 52 50 48 45 43 43 44 43 42 42 42 44 44 44 44 44 44 44 44 45 46 47 47 48 48 48 47 47 45 42 39 34 33 36 39 41 41 40 42 46
37 37 36 36 35 34 32 28 25 27 33 32 27 26 27 28 27 25 28 30 31 35 30 35 66 86 82 76 71 66 67 66 64 65 64 63 62 61 60 58 57 57 55 55 54 53 52 49 46 44 42 42 43 42 41 41 42 43 44 44 45 45 45 45 45 46 47 48 48 49 49 49 48 47 45 45 41 36 34 34 36 37 39 39 40 42
37 36 35 38 41 41 38 38 34 31 33 35 32 28 27 29 28 25 28 33 38 38 31 40 70 85 81 79 72 66 67 65 64 66 65 64 63 60 58 56 55 55 54 53 53 51 49 47 44 43 43 43 43 42 41 40 41 42 43 44 46 47 48 47 47 46 47 48 48 48 48 48 48 47 46 45 44 41 39 38 36 34 35 37 39 40
36 35 34 37 43 44 42 43 42 38 35 36 35 31 29 32 32 28 28 35 42 40 33 44 71 83 78 76 73 68 66 64 64 64 63 63 61 57 55 53 53 54 53 52 52 50 48 47 45 45 45 44 44 43 42 41 41 41 43 45 47 49 50 50 48 47 47 47 47 48 48 48 47 46 45 46 46 46 44 42 40 37 35 35 37 39
36 40 43 46 48 47 45 45 43 42 39 35 34 34 32 34 36 34 32 37 40 40 45 55 65 73 76 73 72 70 67 64 63 63 62 62 60 59 57 56 56 56 56 55 53 52 50 48 48 48 48 48 47 46 45 44 44 43 43 44 46 49 52 53 52 50 49 49 49 49 49 49 48 47 47 47 47 47 47 45 44 42 39 37 36 37
40 50 53 53 53 52 53 52 47 45 41 35 33 37 39 41 44 43 41 43 43 44 61 70 63 66 76 75 73 72 69 66 65 64 64 63 63 63 61 60 59 57 58 58 56 55 54 53 53 53 54 53 52 51 50 49 48 48 47 46 47 50 53 55 56 54 52 51 51 52 51 51 50 49 49 49 48 48 47 46 46 45 43 41 39 39
41 53 54 51 53 55 58 58 52 49 48 44 42 43 45 45 46 49 49 49 50 52 65 74 67 65 72 74 73 73 69 68 67 66 66 64 64 64 62 62 61 59 60 60 58 57 56 56 58 59 60 60 58 56 55 54 54 53 52 51 51 52 55 57 58 56 54 52 52 53 53 53 52 51 51 50 49 49 48 47 45 44 44 43 43 42
44 56 53 50 54 57 60 62 59 57 59 59 55 51 53 51 51 55 55 52 55 61 66 69 68 68 69 68 71 72 70 69 68 66 65 64 64 64 62 60 59 58 59 59 59 59 59 61 63 65 65 64 62 61 59 58 57 57 56 54 53 54 56 59 59 57 55 53 53 53 53 53 54 53 52 52 51 49 48 47 45 44 43 43 43 44
53 62 57 53 58 61 61 62 64 63 61 63 64 60 61 61 58 59 59 55 60 68 69 65 66 71 69 65 67 72 73 71 70 68 66 66 66 66 64 63 61 60 60 61 62 63 64 66 68 68 68 66 64 63 60 58 58 58 57 55 54 55 56 57 57 55 53 53 53 53 53 54 55 54 53 53 52 51 49 48 46 44 42 41 41 43
57 64 63 58 60 63 59 59 66 65 60 62 68 67 65 64 62 61 60 58 59 64 67 65 64 66 65 62 66 73 74 72 71 70 70 69 70 69 68 68 66 66 66 66 67 68 68 69 69 68 67 65 63 61 60 59 58 58 58 56 55 55 55 55 55 54 53 53 53 54 55 55 55 56 55 54 54 53 51 50 48 46 44 42 41 41
54 60 63 57 57 62 60 59 65 64 60 65 72 72 70 68 66 65 64 64 64 62 62 61 59 59 60 61 66 72 73 74 74 75 74 74 73 72 72 70 69 69 70 70 70 71 70 69 69 67 66 65 63 61 61 62 60 59 59 58 57 57 56 56 57 57 56 56 56 56 56 57 58 59 58 57 56 55 53 52 50 49 48 47 43 41
54 56 59 56 56 63 65 64 65 63 65 72 74 72 74 73 70 69 68 69 70 67 62 60 59 60 60 63 69 74 76 78 78 78 79 78 77 75 74 72 71 71 72 72 72 72 71 71 70 68 67 66 63 62 63 63 61 60 60 60 60 59 58 58 58 59 59 58 58 59 58 59 60 61 61 60 59 57 55 54 53 51 50 50 48 45
51 50 56 57 56 61 68 69 70 70 73 76 73 71 75 75 70 68 67 68 70 68 65 65 65 64 62 66 74 79 81 82 82 82 81 80 78 76 74 73 73 73 73 73 74 73 73 72 70 69 67 63 62 63 65 64 63 62 62 62 62 61 60 59 59 60 60 59 58 58 59 60 60 60 60 60 59 59 57 56 55 54 52 52 51 50
50 46 53 60 60 62 68 71 73 78 82 81 77 74 74 72 69 68 70 72 70 66 66 67 65 64 64 67 75 80 81 82 81 81 81 80 78 75 72 72 73 75 76 76 77 76 73 71 69 66 64 62 62 64 65 65 64 64 64 64 63 62 62 61 61 61 61 60 59 59 59 59 59 59 59 58 58 59 59 58 57 56 55 54 54 53
52 48 51 59 59 58 66 75 78 81 83 82 81 77 74 74 75 73 75 78 73 68 68 69 66 66 67 71 77 81 81 80 80 79 78 77 75 73 71 71 72 74 76 77 77 74 72 70 67 65 64 63 64 64 63 62 62 61 61 62 61 61 60 60 60 60 61 60 59 59 59 59 59 58 58 57 57 58 58 59 58 58 57 57 56 56
55 55 55 57 55 53 62 71 73 73 74 75 74 72 73 76 77 74 75 79 75 69 69 71 69 69 72 76 81 81 80 80 80 78 76 74 73 73 73 73 74 75 76 76 74 72 71 68 66 65 66 67 65 63 60 59 58 58 58 59 59 58 58 58 59 59 59 59 57 56 57 57 57 57 56 57 57 57 57 58 59 59 58 58 58 57
61 62 62 59 56 56 59 62 64 66 70 72 71 71 72 73 73 70 72 77 74 68 69 72 71 72 74 78 81 79 78 79 79 77 76 76 76 76 77 78 78 77 76 74 71 70 68 67 65 66 67 66 64 62 60 59 58 58 58 58 58 57 57 57 57 56 56 55 54 54 55 55 56 55 54 55 56 56 56 56 58 59 59 58 58 57
64 66 65 61 57 56 56 60 66 72 74 74 73 73 72 71 71 70 70 72 70 68 70 72 73 74 76 78 79 78 78 79 79 79 80 80 80 80 80 79 76 74 72 70 70 69 68 67 65 64 63 61 59 57 55 54 54 53 53 53 52 52 52 51 49 49 49 49 48 48 49 50 51 52 52 52 52 52 53 54 55 57 57 56 56 55
63 62 62 60 57 54 54 59 68 76 77 73 73 74 72 70 73 73 71 69 67 67 71 74 74 74 76 77 78 77 77 79 80 82 83 82 81 80 79 77 76 73 71 71 71 69 67 66 63 59 56 54 52 50 49 49 49 48 47 47 45 44 43 42 40 39 39 39 39 40 40 42 44 45 46 47 47 47 48 49 50 51 52 53 53 53
59 55 53 54 55 55 54 58 68 76 76 71 69 70 69 68 71 72 70 68 68 69 72 75 73 72 72 73 73 73 74 77 79 81 80 79 78 78 77 77 76 74 71 71 71 67 63 60 57 53 51 50 48 46 44 44 43 41 40 39 37 35 34 34 32 30 30 30 30 30 30 31 33 35 37 38 39 41 43 44 46 46 47 49 50 50
56 52 49 52 56 55 53 59 68 72 69 66 67 69 67 66 67 65 63 64 66 66 66 69 71 70 69 69 70 72 73 73 74 75 75 75 75 76 77 76 74 73 71 68 65 61 55 52 50 48 47 45 42 40 37 36 35 34 32 32 31 30 30 29 28 26 26 26 26 26 26 26 26 28 29 29 31 33 35 38 40 42 44 46 47 47
53 50 50 55 56 53 55 65 71 68 63 63 66 64 62 62 61 58 56 58 61 62 61 64 68 69 68 68 69 70 70 69 69 70 71 73 74 75 76 74 70 67 63 58 54 51 47 45 44 42 39 37 35 33 32 30 30 30 29 29 29 28 28 27 26 25 24 24 24 24 24 24 25 26 27 27 27 27 29 31 33 35 38 41 44 45
51 48 49 54 54 51 56 67 68 62 58 61 62 60 58 59 58 55 54 54 56 59 61 63 66 67 67 68 68 67 67 66 66 69 71 72 73 72 69 65 60 56 53 50 46 43 39 38 36 33 32 31 30 29 28 27 26 25 25 25 25 24 24 23 22 22 21 20 21 22 22 22 22 23 25 25 25 24 25 27 29 30 31 34 38 42
47 43 43 47 49 49 53 57 55 53 54 56 57 57 56 57 57 54 53 52 53 57 60 61 62 64 65 67 67 66 66 66 67 70 71 69 67 63 57 54 51 48 45 42 37 32 31 30 30 28 28 26 24 23 22 20 20 20 20 20 20 19 18 18 18 18 17 16 17 20 21 20 19 21 22 22 22 22 22 23 25 28 29 30 33 36
41 40 39 40 43 46 50 49 46 47 50 50 51 54 54 55 56 54 52 52 54 57 59 59 60 63 65 67 66 65 67 67 65 65 64 61 57 52 47 45 43 38 35 32 30 28 27 26 24 22 20 19 18 17 17 16 16 17 18 19 18 17 17 17 16 16 16 15 16 19 22 22 21 22 22 22 22 23 23 23 24 27 27 27 29 32
38 38 39 37 38 42 46 45 41 42 46 45 47 51 52 51 54 54 52 51 53 56 59 61 62 63 64 65 65 65 65 64 61 60 57 51 45 39 36 35 33 31 30 30 28 25 22 19 17 16 15 15 15 16 16 17 17 17 18 19 18 18 17 17 16 16 16 16 16 19 24 25 24 25 25 23 22 22 23 25 26 26 25 25 27 28
38 40 42 39 38 41 43 42 40 41 44 44 44 47 49 50 52 54 51 50 53 55 58 61 62 62 63 65 64 62 60 59 57 52 44 37 32 30 30 30 29 27 26 24 21 20 18 16 15 15 15 15 16 16 18 19 18 19 19 19 19 19 18 17 16 16 16 17 17 19 24 26 27 28 29 28 27 24 22 24 27 27 26 26 26 26
40 45 45 39 38 40 40 40 40 40 42 42 42 45 48 49 51 52 51 51 54 56 57 59 59 59 60 62 62 60 57 54 49 41 34 31 31 31 28 26 23 21 19 18 17 17 17 16 16 16 16 17 17 18 19 19 19 20 19 18 19 20 19 19 18 17 16 17 18 19 23 27 27 27 30 33 33 30 26 24 25 26 26 26 26 27
41 47 46 41 41 40 38 40 44 44 42 42 44 47 50 50 51 52 52 53 55 55 56 58 60 60 59 60 61 58 52 47 42 36 33 31 29 25 21 19 18 17 16 17 17 16 16 16 17 17 18 18 18 19 20 20 21 21 20 19 19 20 20 20 20 19 19 19 19 20 23 27 28 28 29 30 31 29 28 27 26 25 25 26 26 27